CW5586 Lerum SE current weather conditions

sailwx.info

Wind from 200 at 8 knots gusting 19

Air temperature 3.9° C
Dewpoint 2.4° C

Last reported at 2020-Feb-18 23:31 UTC.
Time now 2020-Feb-19 01:14 UTC

Location: N 57°47' E 012°15'.
View on Google Maps.

See reports from other nearby stations

  
Tides and Currents Weather Stations Pressure Air Temp Water Temp Dewpoint Dewpoint Depression Visibility Wind Speed Wind Dir Waves Ship Positions
date/time (UTC)wind fromknots sea level pressurealtimeterstation pressurevisibilityair tempwater tempwave heightnotes
2020-Feb-18 23:31 200 8 gusting 19 3.9
2020-Feb-18 23:11 202 5 gusting 11 3.9
2020-Feb-18 23:06 185 7 gusting 14 3.9
2020-Feb-18 23:01 207 9 gusting 17 3.9
2020-Feb-18 22:36 198 6 gusting 11 3.3
2020-Feb-18 22:31 201 8 gusting 17 3.3
2020-Feb-18 22:16 204 6 gusting 15 3.3
2020-Feb-18 22:11 206 5 gusting 13 3.3
2020-Feb-18 21:46 194 5 gusting 10 3.9
2020-Feb-18 21:41 201 6 gusting 13 3.9
2020-Feb-18 21:01 194 7 gusting 17 3.9
2020-Feb-18 20:46 190 10 gusting 19 3.9
2020-Feb-18 20:41 204 5 gusting 17 3.9
2020-Feb-18 20:36 217 7 gusting 14 3.9
2020-Feb-18 20:16 205 2 gusting 10 3.9
2020-Feb-18 20:01 215 6 gusting 17 3.9
2020-Feb-18 19:41 199 8 gusting 17 3.9
2020-Feb-18 19:36 206 8 gusting 14 3.9
2020-Feb-18 19:31 186 6 gusting 21 3.9
2020-Feb-18 19:01 208 8 gusting 21 3.9
2020-Feb-18 18:41 190 10 gusting 15 3.9
2020-Feb-18 18:36 195 9 gusting 15 3.9
2020-Feb-18 18:06 188 8 gusting 24 3.9
2020-Feb-18 17:41 206 6 gusting 19 3.3
2020-Feb-18 17:31 227 8 gusting 21 3.3
2020-Feb-18 17:16 207 7 gusting 14 3.9
2020-Feb-18 17:11 205 7 gusting 14 3.9
2020-Feb-18 17:06 191 6 gusting 14 3.9
2020-Feb-18 17:01 215 6 gusting 18 3.9
2020-Feb-18 16:46 198 11 gusting 19 3.9
2020-Feb-18 16:31 203 10 gusting 26 4.4
2020-Feb-18 16:16 202 9 gusting 18 4.4
2020-Feb-18 16:11 203 7 gusting 13 4.4
2020-Feb-18 16:06 206 8 gusting 14 4.4
2020-Feb-18 15:41 203 6 gusting 17 5.0
2020-Feb-18 15:36 216 4 gusting 17 5.0
2020-Feb-18 15:16 201 6 gusting 19 5.0
2020-Feb-18 15:11 188 6 gusting 18 5.0
2020-Feb-18 15:01 231 6 gusting 27 5.0
2020-Feb-18 14:46 204 7 gusting 13 5.0
2020-Feb-18 13:46 190 10 gusting 20 5.0
2020-Feb-18 13:31 236 4 gusting 18 5.0
2020-Feb-18 13:11 212 8 gusting 17 5.0
2020-Feb-18 13:01 232 5 gusting 17 5.0
2020-Feb-18 12:16 200 6 gusting 13 4.4
2020-Feb-18 12:06 211 10 gusting 19 4.4
2020-Feb-18 11:36 218 11 gusting 22 3.9
2020-Feb-18 11:11 200 6 gusting 14 3.9
2020-Feb-18 11:06 199 9 gusting 22 3.9
2020-Feb-18 11:01 197 7 gusting 26 3.9
2020-Feb-18 10:36 193 6 gusting 22 3.9
2020-Feb-18 10:31 196 6 gusting 19 3.9
2020-Feb-18 10:16 215 9 gusting 17 3.9
2020-Feb-18 10:11 199 12 gusting 21 3.9
2020-Feb-18 10:01 202 11 gusting 22 3.9
2020-Feb-18 09:46 192 10 gusting 15 3.9
2020-Feb-18 09:41 220 11 gusting 19 3.9
2020-Feb-18 09:31 204 5 gusting 17 3.9
2020-Feb-18 09:11 218 10 gusting 19 3.9
2020-Feb-18 09:06 207 8 gusting 17 3.9
2020-Feb-18 09:01 209 11 gusting 24 4.4
2020-Feb-18 08:46 213 13 gusting 24 4.4
2020-Feb-18 08:31 195 12 gusting 22 4.4
2020-Feb-18 07:41 201 6 gusting 13 3.9
2020-Feb-18 07:36 212 8 gusting 14 3.9
2020-Feb-18 07:11 208 7 gusting 15 3.9
2020-Feb-18 06:36 196 9 gusting 14 4.4
2020-Feb-18 06:31 203 9 gusting 20 5.0
2020-Feb-18 06:16 216 6 gusting 18 5.0
2020-Feb-18 05:41 205 10 gusting 15 4.4
2020-Feb-18 05:31 195 9 gusting 18 4.4
2020-Feb-18 05:01 194 10 gusting 20 5.0
2020-Feb-18 04:36 175 7 gusting 18 5.0
2020-Feb-18 04:16 211 11 gusting 20 5.0
2020-Feb-18 04:01 207 12 gusting 21 5.0
2020-Feb-18 03:36 202 8 gusting 20 5.0
2020-Feb-18 03:16 204 9 gusting 19 5.0
2020-Feb-18 03:01 203 10 gusting 19 5.0
2020-Feb-18 02:46 208 7 gusting 17 5.0
2020-Feb-18 02:31 200 10 gusting 19 5.0
2020-Feb-18 02:16 200 8 gusting 20 5.0
2020-Feb-18 02:06 212 7 gusting 17 5.0
2020-Feb-18 02:01 198 9 gusting 20 5.0
2020-Feb-18 01:46 211 9 gusting 19 5.0
2020-Feb-18 01:41 201 9 gusting 24 5.0
2020-Feb-18 01:16 195 12 gusting 22 5.0
2020-Feb-18 01:11 197 10 gusting 21 5.0
2020-Feb-18 01:01 204 9 gusting 20 5.0
2020-Feb-18 00:41 211 11 gusting 22 5.0
2020-Feb-18 00:36 244 8 gusting 19 5.0
2020-Feb-18 00:11 211 10 gusting 19 5.6
2020-Feb-18 00:06 207 10 gusting 17 5.6
2020-Feb-17 23:46 209 9 gusting 14 5.6
2020-Feb-17 23:16 208 10 gusting 19 5.6
2020-Feb-17 23:11 216 8 gusting 22 5.6
2020-Feb-17 23:06 201 10 gusting 22 5.6
2020-Feb-17 22:31 202 7 gusting 20 5.6
2020-Feb-17 22:16 196 4 gusting 17 5.0
2020-Feb-17 22:11 190 7 gusting 20 5.6
2020-Feb-17 22:06 199 9 gusting 21 5.0
2020-Feb-17 21:36 217 9 gusting 17 5.0
2020-Feb-17 21:11 206 10 gusting 17 5.0
2020-Feb-17 20:46 217 8 gusting 22 5.0
2020-Feb-17 20:36 202 10 gusting 17 5.0
2020-Feb-17 20:16 194 10 gusting 18 5.0
2020-Feb-17 20:06 186 5 gusting 17 5.0
2020-Feb-17 20:01 220 10 gusting 21 5.0
2020-Feb-17 19:46 220 5 gusting 22 5.0
2020-Feb-17 19:31 213 11 gusting 28 5.0
2020-Feb-17 19:06 198 11 gusting 27 5.0
2020-Feb-17 19:01 203 13 gusting 28 5.0
2020-Feb-17 18:36 207 9 gusting 26 5.0
2020-Feb-17 18:31 195 13 gusting 26 5.0
2020-Feb-17 18:16 202 13 gusting 25 5.0
2020-Feb-17 18:06 201 13 gusting 25 4.4
2020-Feb-17 18:01 190 10 gusting 26 4.4
2020-Feb-17 17:46 217 14 gusting 25 4.4
2020-Feb-17 17:41 196 12 gusting 19 4.4
2020-Feb-17 17:36 196 13 gusting 24 4.4
2020-Feb-17 17:16 204 11 gusting 19 4.4
2020-Feb-17 17:11 208 13 gusting 24 4.4
2020-Feb-17 17:06 195 9 gusting 22 4.4
2020-Feb-17 16:46 208 11 gusting 31 5.0
2020-Feb-17 16:36 199 14 gusting 28 4.4
2020-Feb-17 15:41 209 12 gusting 19 4.4
2020-Feb-17 15:16 207 15 gusting 26 4.4
2020-Feb-17 15:06 201 15 gusting 28 4.4
2020-Feb-17 15:01 198 15 gusting 34 4.4
2020-Feb-17 14:41 198 15 gusting 28 4.4
2020-Feb-17 14:16 202 14 gusting 33 4.4
2020-Feb-17 13:41 186 13 gusting 26 4.4
2020-Feb-17 13:36 208 13 gusting 27 4.4
2020-Feb-17 13:31 186 11 gusting 27 4.4
2020-Feb-17 13:16 190 9 gusting 24 4.4
2020-Feb-17 13:06 184 12 gusting 24 4.4
2020-Feb-17 12:31 195 13 gusting 30 4.4
2020-Feb-17 12:11 194 12 gusting 20 4.4
2020-Feb-17 12:06 199 13 gusting 22 4.4
2020-Feb-17 12:01 194 13 gusting 24 4.4
2020-Feb-17 11:11 192 12 gusting 22 4.4
2020-Feb-17 10:36 191 13 gusting 19 5.0
2020-Feb-17 10:31 189 15 gusting 30 5.0
2020-Feb-17 10:16 209 18 gusting 32 5.0
2020-Feb-17 10:11 195 17 gusting 34 5.0
2020-Feb-17 09:36 207 13 gusting 35 5.0
2020-Feb-17 09:16 205 15 gusting 34 5.6
2020-Feb-17 08:46 199 15 gusting 26 5.0
2020-Feb-17 08:16 227 13 gusting 25 5.0
2020-Feb-17 08:11 206 19 gusting 34 5.6
2020-Feb-17 08:06 193 12 gusting 22 5.6
2020-Feb-17 07:36 196 12 gusting 20 5.0
2020-Feb-17 07:16 208 13 gusting 25 5.0
2020-Feb-17 07:11 217 10 gusting 22 5.0
2020-Feb-17 07:06 199 12 gusting 26 5.0
2020-Feb-17 06:41 202 18 gusting 26 5.0
2020-Feb-17 06:31 228 9 gusting 22 4.4
2020-Feb-17 06:01 190 13 gusting 27 4.4
2020-Feb-17 05:46 200 11 gusting 17 5.0
2020-Feb-17 05:31 200 13 gusting 27 5.0
2020-Feb-17 05:11 207 7 gusting 17 5.0
2020-Feb-17 04:41 222 13 gusting 21 5.0
2020-Feb-17 04:36 199 13 gusting 22 5.0
2020-Feb-17 04:31 200 13 gusting 27 5.0
2020-Feb-17 04:16 200 11 gusting 19 5.0
2020-Feb-17 03:46 204 13 gusting 30 5.0
2020-Feb-17 03:41 211 11 gusting 19 4.4
2020-Feb-17 03:36 195 12 gusting 20 4.4
2020-Feb-17 03:31 212 10 gusting 27 4.4
2020-Feb-17 03:16 198 12 gusting 22 5.0
2020-Feb-17 02:41 204 13 gusting 28 5.0
2020-Feb-17 02:11 206 11 gusting 26 5.0
2020-Feb-17 01:41 195 11 gusting 21 5.0
2020-Feb-17 01:36 205 11 gusting 20 5.0
2020-Feb-17 01:31 195 9 gusting 22 5.0